Home   Weather   York   Past weeks

Flag for United Kingdom Past Weather in York, England, United Kingdom — Yesterday and Last 2 Weeks

Now
61 °F

Overcast.


Feels Like: 61 °F
Forecast: 55 / 70 °F
Wind: 8 mph from South

Location: Linton-On-Ouse

Current Time: Sep 27, 2016 at 11:23:34 PM

Latest Report: Sep 27, 2016 at 10:50 PM


Visibility: N/A

Pressure: 30.09 "Hg

Humidity: 68%

Dew Point: 50 °F

Location of YorkLocation

Past Weather in York — Graph

°F

York Temperature Yesterday

Maximum temperature yesterday: 57 °F (at 2:50 PM)
Minimum temperature yesterday: 46 °F (at 3:50 AM)
Average temperature yesterday: 53 °F

High & Low Weather Summary for the Past Weeks

 TemperatureHumidityPressure
High84 °F (Sep 13, 2:50 PM)100% (Sep 13, 6:50 AM)30.21 "Hg (Sep 13, 6:50 AM)
Low45 °F (Sep 18, 5:50 AM)40% (Sep 23, 1:50 PM)29.68 "Hg (Sep 25, 3:50 AM)
Average59 °F80%30.01 "Hg
* Reported Sep 12 9:50 PM — Sep 27 9:50 PM, York, Weather by CustomWeather, © 2016

Note: Actual official high and low records may vary slightly from our data, if they occured in-between our weather recording intervals... More about our weather records

Advertising

York Weather History for the Previous 24 Hours

Scroll right to see more
 ConditionsComfort  
Time TempWeatherWind HumidityBarometerVisibility
9:50 PM
Tue, Sep 27
61 °FOvercast.5 mph68%30.09 "HgN/A
8:50 PM59 °FOvercast.6 mph72%30.09 "HgN/A
7:50 PM59 °FOvercast.9 mph68%30.09 "HgN/A
6:50 PM59 °FPassing clouds.8 mph68%30.09 "HgN/A
5:50 PM61 °FOvercast.14 mph68%30.07 "HgN/A
4:50 PM64 °FPartly sunny.22 mph64%30.04 "HgN/A
3:50 PM66 °FBroken clouds.15 mph73%30.04 "HgN/A
2:50 PM64 °FBroken clouds.18 mph88%30.01 "HgN/A
1:50 PM66 °FPartly sunny.14 mph78%30.01 "HgN/A
12:50 PM63 °FPartly sunny.16 mph83%30.01 "HgN/A
11:50 AM61 °FDrizzle. More clouds than sun.16 mph88%30.01 "Hg4 mi
10:50 AM59 °FLight rain. More clouds than sun.20 mph88%30.01 "HgN/A
9:50 AM59 °FPartly sunny.10 mph82%30.01 "HgN/A
8:50 AM55 °FPartly sunny.14 mph88%30.01 "HgN/A
7:50 AM55 °FPartly sunny.13 mph82%30.01 "HgN/A
6:50 AM55 °FPassing clouds.13 mph82%30.01 "HgN/A
5:50 AM54 °FPassing clouds.12 mph88%30.04 "HgN/A
4:50 AM54 °FPassing clouds.10 mph88%30.04 "HgN/A
3:50 AM54 °FPassing clouds.8 mph94%30.07 "HgN/A
2:50 AM55 °FOvercast.9 mph88%30.09 "HgN/A
1:50 AM55 °FMostly cloudy.8 mph88%30.09 "HgN/A
12:50 AM55 °FPassing clouds.8 mph94%30.09 "HgN/A
11:50 PM
Mon, Sep 26
55 °FPassing clouds.7 mph94%30.09 "Hg5 mi
Weather by CustomWeather, © 2016

See weather overviewHow to use our weather pages